Location: Buenos Aires
(34.6076°S, 58.4371°W)
Time: 12:02:52
(UTC-03:00)

Envisat - Pass Details

Date: 28 June 2021
Orbit: 764 x 766 km, 98.2° (Epoch: 03 August)

Event Time Altitude Azimuth Distance (km) Brightness Sun altitude
Rises 18:41:53 0° 175° (S) 3,266 6.0 -10.0°
Reaches altitude 10° 18:44:17 10° 181° (S) 2,332 5.3 -10.5°
Maximum altitude 18:49:11 46° 253° (WSW) 1,028 4.1 -11.4°
Drops below altitude 10° 18:54:02 10° 325° (NW) 2,305 6.4 -12.3°
Sets 18:56:24 0° 331° (NNW) 3,224 7.1 -12.8°
